Grosse Ile, MI

2:34 AM EDT on September 25, 2017 (GMT -0400)
Grosse Ile Municipal

Weather History for KONZ - September, 2013

Change the Weather History Date:

Wednesday, September 11, 2013

  Actual Average (KDTW) Record (KDTW)
Temperature  
Mean Temperature 80 °F -  
Max Temperature 89 °F 76 °F 95 °F (1931)
Min Temperature 71 °F 55 °F 39 °F (1917)
Cooling Degree Days 15    
Growing Degree Days 30 (Base 50)    
Moisture  
Dew Point 70 °F    
Average Humidity 74    
Maximum Humidity 94    
Minimum Humidity 58    
Precipitation  
Precipitation 0.42 in - - ()
Sea Level Pressure  
Sea Level Pressure 30.00 in    
Wind  
Wind Speed 7 mph (SW)    
Max Wind Speed 17 mph    
Max Gust Speed 37 mph    
Visibility 10 miles    
Events Rain    
Averages and records for this station are not official NWS values.
T = Trace of Precipitation, MM = Missing Value Source: NWS Daily Summary

Daily Weather History Graph

Daily Weather History Graph

Search for Another Location

Airport or City:

Trip Planner

Search our weather history database for the weather conditions in past years. The results will help you decide how hot, cold, wet, or windy it might be!

Date:

Astronomy

Sep. 11, 2013 Rise Set
Actual Time 7:08 AM EDT 7:48 PM EDT
Civil Twilight 6:40 AM EDT 8:16 PM EDT
Nautical Twilight 6:07 AM EDT 8:50 PM EDT
Astronomical Twilight 5:32 AM EDT 9:24 PM EDT
Moon 1:42 PM EDT (9/11) 11:37 PM EDT (9/11)
Length of Visible Light 13h 36m
Length of Day
12h 40m
Waxing Crescent, 38% of the Moon is Illuminated
Sep 11
Waxing Crescent
Sep 12
First Quarter
Sep 19
Full
Sep 26
Last Quarter
Oct 4
New

Hourly Weather History & Observations

Time (EDT) Temp. Heat Index Dew Point Humidity Pressure Visibility Wind Dir Wind Speed Gust Speed Precip Events Conditions
12:14 AM 78.8 °F - 66.2 °F 65% 30.02 in 10.0 mi South 9.2 mph - N/A   Clear
12:34 AM 78.8 °F - 68.0 °F 69% 30.02 in 10.0 mi SSW 9.2 mph - N/A   Clear
12:54 AM 80.6 °F 82.3 °F 64.4 °F 58% 30.02 in 10.0 mi SSW 8.1 mph - N/A   Clear
1:14 AM 80.6 °F 82.3 °F 64.4 °F 58% 30.02 in 10.0 mi SSW 8.1 mph - N/A   Clear
1:34 AM 78.8 °F - 64.4 °F 61% 30.02 in 10.0 mi SSW 6.9 mph - N/A   Clear
1:54 AM 78.8 °F - 64.4 °F 61% 30.02 in 10.0 mi SW 5.8 mph - N/A   Clear
2:14 AM 78.8 °F - 66.2 °F 65% 30.02 in 10.0 mi SW 6.9 mph - N/A   Clear
2:33 AM 78.8 °F - 66.2 °F 65% 30.02 in 10.0 mi SW 6.9 mph - N/A   Clear
2:54 AM 78.8 °F - 66.2 °F 65% 30.02 in 10.0 mi SW 8.1 mph - N/A   Clear
3:14 AM 78.8 °F - 68.0 °F 69% 30.02 in 10.0 mi SW 6.9 mph - N/A   Clear
3:34 AM 78.8 °F - 68.0 °F 69% 30.02 in 10.0 mi WSW 5.8 mph - N/A   Clear
3:54 AM 78.8 °F - 68.0 °F 69% 30.02 in 10.0 mi WSW 6.9 mph - N/A   Clear
4:13 AM 78.8 °F - 68.0 °F 69% 30.02 in 10.0 mi WSW 4.6 mph - N/A   Clear
4:34 AM 77.0 °F - 68.0 °F 74% 30.02 in 10.0 mi WSW 5.8 mph - N/A   Clear
4:54 AM 77.0 °F - 68.0 °F 74% 30.02 in 10.0 mi WSW 5.8 mph - N/A   Clear
5:14 AM 75.2 °F - 68.0 °F 78% 30.02 in 10.0 mi SSW 5.8 mph - N/A   Clear
5:34 AM 75.2 °F - 68.0 °F 78% 30.02 in 10.0 mi SSW 5.8 mph - N/A   Clear
5:54 AM 75.2 °F - 69.8 °F 83% 30.02 in 10.0 mi SSW 5.8 mph - N/A   Clear
6:14 AM 75.2 °F - 69.8 °F 83% 30.03 in 10.0 mi SSW 5.8 mph - N/A   Clear
6:34 AM 75.2 °F - 69.8 °F 83% 30.03 in 10.0 mi SW 4.6 mph - N/A   Clear
6:54 AM 75.2 °F - 69.8 °F 83% 30.03 in 10.0 mi SW 3.5 mph - N/A   Clear
7:14 AM 75.2 °F - 69.8 °F 83% 30.03 in 10.0 mi SSW 5.8 mph - N/A   Clear
7:34 AM 75.2 °F - 69.8 °F 83% 30.03 in 10.0 mi SSW 4.6 mph - N/A   Clear
7:54 AM 75.2 °F - 69.8 °F 83% 30.04 in 10.0 mi SSW 6.9 mph - N/A   Clear
8:14 AM 75.2 °F - 69.8 °F 83% 30.04 in 10.0 mi SW 3.5 mph - N/A   Clear
8:34 AM 77.0 °F - 69.8 °F 78% 30.04 in 10.0 mi WSW 5.8 mph - N/A   Clear
8:54 AM 77.0 °F - 69.8 °F 78% 30.04 in 10.0 mi SW 8.1 mph - N/A   Clear
9:14 AM 77.0 °F - 69.8 °F 78% 30.04 in 10.0 mi SW 6.9 mph - N/A   Clear
9:34 AM 77.0 °F - 69.8 °F 78% 30.05 in 10.0 mi WSW 6.9 mph - N/A   Clear
9:53 AM 78.8 °F - 71.6 °F 78% 30.05 in 10.0 mi WSW 6.9 mph - N/A   Clear
10:14 AM 78.8 °F - 69.8 °F 74% 30.05 in 10.0 mi SW 8.1 mph - N/A   Clear
10:34 AM 78.8 °F - 71.6 °F 78% 30.04 in 10.0 mi SSW 5.8 mph - N/A   Clear
10:54 AM 78.8 °F - 71.6 °F 78% 30.04 in 10.0 mi SW 4.6 mph - N/A   Clear
11:14 AM 80.6 °F 84.6 °F 71.6 °F 74% 30.04 in 10.0 mi SSW 5.8 mph - N/A   Clear
11:33 AM 82.4 °F 87.2 °F 71.6 °F 70% 30.03 in 10.0 mi WSW 6.9 mph - N/A   Clear
11:54 AM 82.4 °F 87.2 °F 71.6 °F 70% 30.03 in 10.0 mi SW 5.8 mph - N/A   Clear
12:14 PM 84.2 °F 89.6 °F 71.6 °F 66% 30.02 in 10.0 mi SW 6.9 mph - N/A   Clear
12:34 PM 84.2 °F 90.9 °F 73.4 °F 70% 30.02 in 10.0 mi South 8.1 mph - N/A   Clear
12:54 PM 82.4 °F 88.2 °F 73.4 °F 74% 30.01 in 7.0 mi South 8.1 mph - N/A   Clear
1:14 PM 82.4 °F 88.2 °F 73.4 °F 74% 30.00 in 7.0 mi South 9.2 mph - N/A   Clear
1:34 PM 82.4 °F 88.2 °F 73.4 °F 74% 30.00 in 7.0 mi South 9.2 mph - N/A   Clear
1:54 PM 82.4 °F 88.2 °F 73.4 °F 74% 30.00 in 7.0 mi South 6.9 mph - N/A   Scattered Clouds
2:14 PM 84.2 °F 92.3 °F 75.2 °F 74% 29.99 in 7.0 mi South 9.2 mph - N/A   Clear
2:34 PM 84.2 °F 92.3 °F 75.2 °F 74% 29.99 in 7.0 mi South 5.8 mph - N/A   Scattered Clouds
2:54 PM 89.6 °F 98.2 °F 73.4 °F 59% 29.98 in 10.0 mi WSW 6.9 mph - N/A   Scattered Clouds
3:14 PM 87.8 °F 97.6 °F 75.2 °F 66% 29.98 in 10.0 mi SSE 4.6 mph - N/A   Clear
3:34 PM 87.8 °F 97.6 °F 75.2 °F 66% 29.97 in 10.0 mi South 3.5 mph - N/A   Clear
3:54 PM 87.8 °F 95.6 °F 73.4 °F 62% 29.96 in 10.0 mi Calm Calm - N/A   Clear
4:14 PM 89.6 °F 99.8 °F 75.2 °F 62% 29.95 in 10.0 mi ESE 3.5 mph - N/A   Clear
4:34 PM 87.8 °F 95.6 °F 73.4 °F 62% 29.94 in 10.0 mi Calm Calm - N/A   Clear
4:54 PM 87.8 °F 95.6 °F 73.4 °F 62% 29.93 in 10.0 mi South 3.5 mph - N/A   Clear
5:14 PM 84.2 °F 90.9 °F 73.4 °F 70% 29.92 in 10.0 mi South 10.4 mph - N/A   Clear
5:34 PM 84.2 °F 89.6 °F 71.6 °F 66% 29.92 in 10.0 mi SSW 6.9 mph - N/A   Clear
5:53 PM 82.4 °F 87.2 °F 71.6 °F 70% 29.91 in 10.0 mi South 8.1 mph - N/A   Clear
6:14 PM 80.6 °F 84.6 °F 71.6 °F 74% 29.91 in 10.0 mi South 5.8 mph - N/A   Clear
6:34 PM 80.6 °F 84.6 °F 71.6 °F 74% 29.91 in 10.0 mi SSW 3.5 mph - N/A   Clear
6:53 PM 82.4 °F 86.3 °F 69.8 °F 66% 29.93 in 10.0 mi SW 3.5 mph - N/A   Scattered Clouds
7:14 PM 82.4 °F 86.3 °F 69.8 °F 66% 29.91 in 10.0 mi Calm Calm - N/A   Mostly Cloudy
7:34 PM 80.6 °F 84.6 °F 71.6 °F 74% 29.96 in 2.5 mi NNW 17.3 mph 36.8 mph 0.13 in Rain Light Rain
7:54 PM 75.2 °F - 68.0 °F 78% 29.97 in 10.0 mi NNW 16.1 mph 25.3 mph 0.18 in Rain Light Rain
8:14 PM 73.4 °F - 68.0 °F 83% 29.96 in 10.0 mi North 9.2 mph - N/A Rain Light Rain
8:34 PM 73.4 °F - 66.2 °F 78% 29.96 in 10.0 mi NNW 3.5 mph - N/A Rain Light Rain
8:54 PM 73.4 °F - 68.0 °F 83% 29.97 in 10.0 mi NNW 6.9 mph - N/A Rain Light Rain
9:14 PM 71.6 °F - 68.0 °F 88% 30.02 in 7.0 mi SW 9.2 mph 19.6 mph 0.05 in Rain Heavy Rain
9:34 PM 71.6 °F - 68.0 °F 88% 29.99 in 10.0 mi Calm Calm - 0.08 in Rain Rain
9:54 PM 71.6 °F - 68.0 °F 88% 29.97 in 7.0 mi Calm Calm - 0.09 in Rain Light Rain
10:14 PM 71.6 °F - 68.0 °F 88% 29.95 in 10.0 mi Calm Calm - N/A   Mostly Cloudy
10:34 PM 71.6 °F - 69.8 °F 94% 29.97 in 10.0 mi WNW 6.9 mph - N/A   Mostly Cloudy
10:54 PM 71.6 °F - 66.2 °F 83% 29.98 in 10.0 mi West 4.6 mph 9.2 mph 0.13 in Rain Rain
11:14 PM 71.6 °F - 68.0 °F 88% 29.96 in 10.0 mi Calm Calm - 0.02 in Rain Rain
11:33 PM 71.6 °F - 68.0 °F 88% 29.95 in 10.0 mi NNW 5.8 mph - 0.02 in   Scattered Clouds
11:54 PM 71.6 °F - 68.0 °F 88% 29.94 in 10.0 mi NW 4.6 mph - 0.02 in   Scattered Clouds